CW6623 Weather Reports


time (UTC)temp
C
wind
direction
speed
KPH
gust
KPH
rain 1hr
cm
rain 24hr
cm
rain mn
cm
humidity
%
barometer
mb
20260505234331 15 240 4.8 14.5 0.00 0.00 0.00 69 1012.1
20260505233329 15 261 4.8 16.1 0.00 0.00 0.00 69 1012.1
20260505232333 15 256 4.8 12.9 0.00 0.00 0.00 68 1012.1
20260505231358 15 240 3.2 11.3 0.00 0.00 0.00 67 1012.1
20260505230334 15 252 3.2 9.7 0.00 0.00 0.00 67 1012.1
20260505225334 15 239 3.2 6.4 0.00 0.00 0.00 67 1012.1
20260505224335 15 209 3.2 4.8 0.00 0.00 0.00 67 1012.2
20260505223330 15 228 0.0 8.0 0.00 0.00 0.00 66 1012.2
20260505222330 15 260 1.6 9.7 0.00 0.00 0.00 67 1012.2
20260505221332 15 273 0.0 8.0 0.00 0.00 0.00 67 1012.3
20260505220356 15 249 4.8 9.7 0.00 0.00 0.00 68 1012.3
20260505215335 15 214 0.0 6.4 0.00 0.00 0.00 67 1012.4
20260505214336 15 258 3.2 9.7 0.00 0.00 0.00 66 1012.6
20260505213401 15 240 3.2 11.3 0.00 0.00 0.00 68 1012.6
20260505212339 15 224 0.0 6.4 0.00 0.00 0.00 68 1012.6
20260505211339 16 232 1.6 8.0 0.00 0.00 0.00 66 1012.6
20260505210322 15 192 3.2 6.4 0.00 0.00 0.00 66 1012.5
20260505205348 15 247 1.6 14.5 0.00 0.00 0.00 67 1012.4
20260505204407 16 272 4.8 11.3 0.00 0.00 0.00 66 1012.4
20260505203345 15 5 1.6 6.4 0.00 0.00 0.00 67 1012.4
20260505202342 15 302 0.0 11.3 0.00 0.00 0.00 69 1012.6
20260505201338 15 269 1.6 9.7 0.00 0.00 0.00 69 1012.6
20260505200404 15 22 3.2 8.0 0.00 0.00 0.00 69 1012.6
20260505195338 14 333 3.2 9.7 0.00 0.00 0.00 73 1012.7
20260505194400 14 267 3.2 8.0 0.00 0.00 0.00 74 1012.9
20260505193339 13 235 3.2 6.4 0.00 0.00 0.00 76 1012.9
20260505192342 13 257 4.8 16.1 0.00 0.00 0.00 75 1012.8
20260505191339 13 355 0.0 1.6 0.00 0.00 0.00 76 1012.7
20260505190346 13 327 1.6 4.8 0.00 0.00 0.00 75 1012.7
20260505185343 13 5 1.6 6.4 0.00 0.00 0.00 76 1012.6
20260505184340 13 329 1.6 4.8 0.00 0.00 0.00 75 1012.7
20260505183335 13 298 0.0 0.0 0.00 0.00 0.00 76 1012.7
20260505182336 13 203 0.0 1.6 0.00 0.00 0.00 76 1012.7
20260505181331 13 202 0.0 4.8 0.00 0.00 0.00 77 1012.6
20260505180329 13 257 0.0 6.4 0.00 0.00 0.00 78 1012.6
20260505175331 13 280 1.6 8.0 0.00 0.00 0.00 77 1012.6
20260505174327 13 277 0.0 3.2 0.00 0.00 0.00 77 1012.3
20260505173325 13 250 4.8 11.3 0.00 0.00 0.00 76 1012.3
20260505172325 13 279 1.6 11.3 0.00 0.00 0.00 76 1012.1
20260505171322 13 257 3.2 6.4 0.00 0.00 0.00 76 1012.1
20260505170348 12 279 3.2 11.3 0.00 0.00 0.00 75 1012.1
20260505165346 12 291 3.2 11.3 0.00 0.00 0.00 76 1012.1
20260505164323 12 284 1.6 8.0 0.00 0.00 0.00 76 1012.0
20260505163349 12 230 4.8 8.0 0.00 0.00 0.00 76 1012.0
20260505162347 12 5 1.6 8.0 0.00 0.00 0.00 76 1012.1
20260505161347 12 269 4.8 6.4 0.00 0.00 0.00 75 1012.0
20260505160345 12 360 1.6 6.4 0.00 0.00 0.00 76 1012.0
20260505153325 12 248 0.0 0.0 0.00 0.00 0.00 79 1011.6
20260505152322 12 248 0.0 0.0 0.00 0.00 0.00 79 1011.6
20260505151347 11 188 0.0 0.0 0.00 0.00 0.00 79 1011.4
20260505150347 11 190 1.6 6.4 0.00 0.00 0.00 79 1011.4
20260505140339 10 187 0.0 1.6 0.00 0.00 0.00 86 1011.2
20260505124355 10 186 0.0 1.6 0.00 0.00 0.00 86 1011.1
20260505123331 10 184 1.6 4.8 0.00 0.00 0.00 86 1011.1
20260505122337 10 187 0.0 0.0 0.00 0.00 0.00 86 1011.0
20260505121337 10 187 0.0 0.0 0.00 0.00 0.00 85 1011.0
20260505120334 10 188 1.6 4.8 0.00 0.00 0.00 85 1011.0
20260505115335 10 225 0.0 0.0 0.00 0.00 0.00 86 1011.0
20260505114337 10 248 0.0 0.0 0.00 0.00 0.00 85 1011.1
20260505113338 10 248 0.0 0.0 0.00 0.00 0.00 85 1011.1
20260505112322 10 248 0.0 0.0 0.00 0.00 0.00 84 1011.1
20260505111323 10 249 0.0 0.0 0.00 0.00 0.00 83 1011.0
20260505110347 10 249 0.0 0.0 0.00 0.00 0.00 82 1011.0
20260505101324 10 272 0.0 0.0 0.00 0.00 0.00 79 1011.5
20260505100401 10 272 0.0 0.0 0.00 0.00 0.00 79 1011.5
20260505095407 10 272 0.0 6.4 0.00 0.00 0.00 78 1011.3
20260505094344 10 244 3.2 4.8 0.00 0.00 0.00 79 1011.5
20260505093324 10 248 0.0 3.2 0.00 0.00 0.00 76 1011.5
20260505092323 10 258 1.6 6.4 0.00 0.00 0.00 75 1011.5
20260505091326 10 263 0.0 4.8 0.00 0.00 0.00 76 1011.6
20260505090328 10 263 0.0 0.0 0.00 0.00 0.00 77 1011.6
20260505085325 11 264 0.0 0.0 0.00 0.00 0.00 78 1011.8
20260505084324 11 265 0.0 0.0 0.00 0.00 0.00 78 1012.0
20260505083324 11 265 0.0 0.0 0.00 0.00 0.00 77 1012.0
20260505082326 11 264 0.0 0.0 0.00 0.00 0.00 76 1012.1
20260505081323 11 265 0.0 0.0 0.00 0.00 0.00 76 1012.2
20260505080326 11 265 0.0 4.8 0.00 0.00 0.00 76 1012.2
20260505075326 11 281 0.0 3.2 0.00 0.00 0.00 78 1012.2
20260505074350 11 355 0.0 0.0 0.00 0.00 0.00 79 1012.2
20260505073331 11 355 0.0 0.0 0.00 0.00 0.00 80 1012.2
20260505072332 11 331 0.0 0.0 0.00 0.00 0.00 81 1012.1
20260505071329 11 344 0.0 0.0 0.00 0.00 0.00 81 1011.9
20260505070327 11 344 0.0 0.0 0.00 0.00 0.00 80 1011.9
20260505065355 11 344 0.0 0.0 0.00 0.00 0.00 80 1011.7
20260505064334 11 344 0.0 0.0 0.00 0.00 0.00 80 1011.7
20260505063331 11 344 0.0 0.0 0.00 0.00 0.00 79 1011.7
20260505062359 11 344 0.0 0.0 0.00 0.00 0.00 79 1011.6
20260505061339 11 344 0.0 0.0 0.00 0.00 0.00 79 1011.6
20260505060336 11 355 0.0 0.0 0.00 0.00 0.00 78 1011.6
20260505055335 11 277 0.0 6.4 0.00 0.00 0.00 78 1011.7
20260505054338 11 277 0.0 4.8 0.00 0.00 0.00 78 1012.0
20260505053337 11 28 0.0 0.0 0.00 0.00 0.00 78 1012.0
20260505052335 11 266 0.0 0.0 0.00 0.00 0.00 77 1012.1
20260505051336 11 264 0.0 0.0 0.00 0.00 0.00 77 1012.2
20260505050336 11 264 0.0 0.0 0.00 0.00 0.00 77 1012.2
20260505041327 12 266 0.0 0.0 0.00 0.00 0.00 74 1011.6
20260505040326 12 265 0.0 0.0 0.00 0.00 0.00 73 1011.6
20260505035325 12 259 0.0 0.0 0.00 0.00 0.00 72 1011.5
20260505034349 12 260 0.0 0.0 0.00 0.00 0.00 72 1011.0
20260505033349 12 259 0.0 0.0 0.00 0.00 0.00 72 1011.1
20260505032331 12 259 0.0 0.0 0.00 0.00 0.00 71 1011.1
20260505031355 13 259 0.0 0.0 0.00 0.00 0.00 70 1011.1
20260505030335 13 259 0.0 6.4 0.00 0.00 0.00 69 1011.1
20260505025358 13 269 0.0 1.6 0.00 0.00 0.00 68 1011.0
20260505024336 13 267 0.0 4.8 0.00 0.00 0.00 67 1011.0
20260505023334 13 360 3.2 6.4 0.00 0.00 0.00 67 1011.0
20260505022335 13 268 0.0 6.4 0.00 0.00 0.00 66 1011.0
20260505021403 14 248 1.6 4.8 0.00 0.00 0.00 66 1011.2
20260505020339 14 300 0.0 9.7 0.00 0.00 0.00 65 1011.2
20260505015337 14 273 3.2 8.0 0.00 0.00 0.00 65 1011.1
20260505014338 15 20 1.6 4.8 0.00 0.00 0.00 65 1011.0
20260505013336 15 360 3.2 14.5 0.00 0.00 0.00 64 1011.0
20260505012335 15 292 1.6 11.3 0.00 0.00 0.00 63 1011.1
20260505011337 15 255 3.2 9.7 0.00 0.00 0.00 62 1011.1
20260505010336 15 80 3.2 9.7 0.00 0.00 0.00 62 1011.1
20260505005334 15 244 1.6 6.4 0.00 0.00 0.00 61 1011.2
20260505004333 15 34 3.2 6.4 0.00 0.00 0.00 61 1011.5
20260505003340 15 329 1.6 4.8 0.00 0.00 0.00 62 1011.5
20260505002330 15 264 3.2 6.4 0.00 0.00 0.00 62 1011.4
20260505001330 15 265 0.0 6.4 0.00 0.00 0.00 63 1011.2
20260505000331 15 343 3.2 14.5 0.00 0.00 0.00 61 1011.2
20260504235330 15 251 1.6 11.3 0.00 0.00 0.00 61 1011.2